ORBCOMM FM108

Last updated on Sat Aug 15 2026 00:03:10 GMT+0000 (Coordinated Universal Time)

1 41187U 15081J 26226.15656564 .00000116 00000+0 60637-4 0 9995 2 41187 47.0043 268.1043 0001313 124.5455 235.5555 14.58945281568544
UTC large
Height (km)
Speed (km/s)
/
Latitude / Longitude
Inclination (degrees)
Orbital Period (minutes)
Azimuth
Elevation
Range (km)
Doppler Factor

Next 0 passes for location: London (51.5072 / 0.1276)

No passes found over London.
ORBCOMM FM108